Location: Cointrin
(46.2167°N, 6.1167°E)
Time: 19:00:19
(UTC+00:00)

Cosmos 2058 Rocket - Pass Details

Date: 08 February 2023
Orbit: 610 x 637 km, 82.5° (Epoch: 21 March)

Event Time Altitude Azimuth Distance (km) Brightness Sun altitude
Rises 17:57:30 0° 349° (N) 2,905 6.5 -12.0°
Reaches altitude 10° 17:59:43 10° 349° (N) 1,999 5.7 -12.4°
Maximum altitude 18:04:09 80° 263° (W) 639 3.2 -13.2°
Drops below altitude 10° 18:08:35 10° 177° (S) 1,999 5.7 -13.9°
Sets 18:10:49 0° 176° (S) 2,906 6.5 -14.3°
